Tracking 19164 objects as of 20-May-2018
HD Live streaming from Space Station
objects crossing your sky now

FENGYUN 1C DEB

Track FENGYUN 1C DEB now!
10-day predictions


NORAD ID: 30539
Int'l Code: 1999-025AKD
Perigee: 657.2 km
Apogee: 855.3 km
Inclination: 98.9 °
Period: 99.8 minutes
Semi major axis: 7127 km
RCS: 0.025 m2 (small)
Launch date: May 10, 1999
Source: People's Republic of China (PRC)
Launch site: Taiyaun Space Center, China (TSC)

Note: This is SATELLITE DEBRIS
aabbcc
Your satellite tracking list
Your tracking list is empty




NASA's NSSDC Master Catalog

Two Line Element Set (TLE):
1 30539U 99025AKD 18140.50139425 +.00000314 +00000-0 +98631-4 0  9997
2 30539 098.9344 324.4715 0138930 269.4745 089.0523 14.42848425594339
Source of the keplerian elements: AFSPC